Starlink 31636

operational
NORAD ID: 59747 Int'l Des: 2024-090 Owner: SPXS Country: US Constellation: starlink
LEOCIRCULAR

关于 Starlink 31636

正在加载描述...

实时位置

正在加载3D地球...

即将过境

高度历史

Altitude vs Time

uPlot chart will show altitude changes over time

两行轨道根数

1 59747U 24090T 25308.61527463 -.00000997 00000-0 -26726-4 0 9993
2 59747 43.0029 169.6776 0001146 276.8005 83.2716 15.27576497 84310
Epoch: Nov 4, 2025 • Age: 7 hours

当前状态

高度 494.8 km
速度 7.62 km/s
星下点 -41.05°S, 39.5°E
发射日期 May 13, 2024
运行时间 1.4 years
类型 internet

技术详情

分类 Payload
质量 730.00 kg
干质量 700.00 kg
总质量 730.00 kg
长度 0.30 m
直径 4.10 m
跨度 29.00 m
形状 Box + pan
制造商 SPXS
平台类型 Starlink V2M
阶段状态 In Orbit
所有者/国家 SPXS/US

大型星座

Loading constellations...